TimeEST,TemperatureF,Dew PointF,Humidity,Sea Level PressureIn,VisibilityMPH,Wind Direction,Wind SpeedMPH,Gust SpeedMPH,PrecipitationIn,Events,Conditions,WindDirDegrees,DateUTC
12:54 AM,19.9,15.1,81,29.96,9.0,West,10.4,-,0.00,Snow,Light Snow,260,2013-03-04 05:54:00
1:54 AM,19.9,15.1,81,29.96,9.0,West,11.5,-,0.00,Snow,Light Snow,260,2013-03-04 06:54:00
2:54 AM,19.9,15.1,81,29.97,6.0,West,10.4,-,0.00,Snow,Light Snow,260,2013-03-04 07:54:00
3:54 AM,19.9,15.1,81,29.98,9.0,West,9.2,-,0.00,Snow,Light Snow,270,2013-03-04 08:54:00
4:54 AM,19.9,15.1,81,30.00,9.0,West,10.4,-,0.00,Snow,Light Snow,260,2013-03-04 09:54:00
5:54 AM,19.0,14.0,81,30.01,9.0,West,9.2,-,0.00,Snow,Light Snow,260,2013-03-04 10:54:00
6:27 AM,17.6,12.2,79,29.97,9.0,West,9.2,-,0.00,Snow,Light Snow,260,2013-03-04 11:27:00
6:54 AM,18.0,12.9,81,30.02,9.0,West,10.4,-,0.00,Snow,Light Snow,260,2013-03-04 11:54:00
7:00 AM,17.6,12.2,79,29.98,9.0,West,10.4,-,N/A,Snow,Light Snow,260,2013-03-04 12:00:00
7:54 AM,19.9,15.1,81,30.04,3.0,West,8.1,-,0.00,Snow,Light Snow,260,2013-03-04 12:54:00
8:54 AM,21.0,15.1,78,30.04,7.0,West,12.7,19.6,0.00,Snow,Light Snow,260,2013-03-04 13:54:00
9:54 AM,23.0,14.0,68,30.04,6.0,WNW,15.0,19.6,0.00,Snow,Light Snow,290,2013-03-04 14:54:00
10:54 AM,24.1,15.1,69,30.04,8.0,West,10.4,-,0.00,Snow,Light Snow,280,2013-03-04 15:54:00
11:34 AM,24.8,15.8,69,29.99,10.0,WNW,13.8,-,0.00,,Overcast,290,2013-03-04 16:34:00
11:54 AM,26.1,16.0,66,30.03,10.0,West,13.8,-,0.00,,Overcast,260,2013-03-04 16:54:00
12:49 PM,28.4,15.8,59,29.98,10.0,West,17.3,-,N/A,,Overcast,260,2013-03-04 17:49:00
12:54 PM,28.0,16.0,61,30.02,10.0,West,13.8,23.0,N/A,,Overcast,270,2013-03-04 17:54:00
1:54 PM,28.0,18.0,66,30.01,10.0,West,16.1,-,N/A,,Overcast,260,2013-03-04 18:54:00
2:10 PM,28.4,17.6,64,29.98,10.0,West,13.8,-,N/A,,Overcast,260,2013-03-04 19:10:00
2:54 PM,28.9,19.0,67,30.02,10.0,West,15.0,24.2,N/A,,Overcast,270,2013-03-04 19:54:00
3:54 PM,28.4,19.4,69,29.99,10.0,West,15.0,25.3,N/A,,Overcast,270,2013-03-04 20:54:00
4:54 PM,28.9,19.9,69,30.03,10.0,West,12.7,20.7,N/A,,Overcast,270,2013-03-04 21:54:00
5:54 PM,28.9,19.9,69,30.04,10.0,West,10.4,-,N/A,,Overcast,260,2013-03-04 22:54:00
6:54 PM,28.0,19.9,72,30.06,10.0,West,11.5,-,N/A,,Overcast,270,2013-03-04 23:54:00
7:54 PM,28.0,19.9,72,30.06,10.0,West,10.4,-,N/A,,Overcast,270,2013-03-05 00:54:00
8:54 PM,28.0,19.9,72,30.08,10.0,West,10.4,-,0.00,Snow,Light Snow,280,2013-03-05 01:54:00
9:54 PM,28.0,19.9,72,30.08,10.0,West,8.1,-,0.00,Snow,Light Snow,280,2013-03-05 02:54:00
10:54 PM,27.0,19.9,75,30.08,10.0,NW,11.5,-,0.00,Snow,Light Snow,320,2013-03-05 03:54:00
11:54 PM,26.1,18.0,71,30.09,10.0,NW,6.9,-,0.00,,Overcast,310,2013-03-05 04:54:00